When you browse on this site, cookies collect data to enhance your experience and personalize the content and advertising you see.
Visit our Privacy Policy to learn more. By continuing to use the site, you agree to this use of cookies and data.

Hourly Weather San Juan

Today, 6 July, Monday

Time Temperature Precipitation Wind Pressure Humidity
00:00 +6°C° 0 mm 2 mps 707 mmHg 63%
01:00 +6°C° 0 mm 1 mps 706 mmHg 64%
02:00 +6°C° 0 mm 1 mps 706 mmHg 66%
03:00 +5°C° 0 mm 1 mps 706 mmHg 67%
04:00 +5°C° 0 mm 1 mps 706 mmHg 69%
05:00 +5°C° 0 mm 1 mps 706 mmHg 69%
06:00 +5°C° 0 mm 1 mps 706 mmHg 69%
07:00 +5°C° 0 mm 1 mps 706 mmHg 70%
08:00 +6°C° 0 mm 1 mps 706 mmHg 62%
09:00 +7°C° 0 mm 2 mps 706 mmHg 54%
10:00 +9°C° 0 mm 2 mps 706 mmHg 46%
11:00 +10°C° 0 mm 2 mps 706 mmHg 45%
12:00 +12°C° 0 mm 2 mps 705 mmHg 43%
13:00 +12°C° 0 mm 2 mps 704 mmHg 41%
14:00 +12°C° 0 mm 2 mps 704 mmHg 41%
15:00 +11°C° 0 mm 3 mps 704 mmHg 41%
16:00 +11°C° 0 mm 3 mps 704 mmHg 41%
17:00 +10°C° 0 mm 3 mps 705 mmHg 45%
18:00 +9°C° 0 mm 3 mps 705 mmHg 49%
19:00 +8°C° 0 mm 2 mps 705 mmHg 52%
20:00 +7°C° 0 mm 2 mps 705 mmHg 55%
21:00 +7°C° 0 mm 1 mps 706 mmHg 57%
22:00 +7°C° 0 mm 1 mps 706 mmHg 60%
23:00 +6°C° 0 mm 1 mps 706 mmHg 62%

Tomorrow, 7 July, Tuesday

Time Temperature Precipitation Wind Pressure Humidity
00:00 +5°C° 0 mm 0 mps 706 mmHg 64%
01:00 +4°C° 0 mm 0 mps 706 mmHg 66%
02:00 +4°C° 0 mm 0 mps 706 mmHg 67%
03:00 +4°C° 0 mm 0 mps 706 mmHg 68%
04:00 +5°C° 0 mm 1 mps 706 mmHg 69%
05:00 +5°C° 0 mm 1 mps 706 mmHg 69%
06:00 +5°C° 0 mm 1 mps 707 mmHg 68%
07:00 +5°C° 0 mm 1 mps 707 mmHg 68%
08:00 +7°C° 0 mm 1 mps 707 mmHg 63%
09:00 +7°C° 0 mm 2 mps 708 mmHg 57%
10:00 +9°C° 0 mm 2 mps 708 mmHg 52%
11:00 +10°C° 0 mm 2 mps 707 mmHg 50%
12:00 +12°C° 0 mm 2 mps 707 mmHg 48%
13:00 +12°C° 0 mm 2 mps 706 mmHg 46%
14:00 +12°C° 0 mm 2 mps 706 mmHg 46%
15:00 +12°C° 0 mm 2 mps 706 mmHg 46%
16:00 +12°C° 0 mm 2 mps 707 mmHg 46%
17:00 +11°C° 0 mm 1 mps 707 mmHg 53%
18:00 +9°C° 0 mm 1 mps 707 mmHg 59%
19:00 +8°C° 0 mm 1 mps 707 mmHg 66%
20:00 +7°C° 0 mm 0 mps 707 mmHg 67%
21:00 +6°C° 0 mm 0 mps 708 mmHg 67%
22:00 +6°C° 0 mm 0 mps 708 mmHg 68%
23:00 +6°C° 0 mm 0 mps 708 mmHg 70%

Day after tomorrow, 8 July, Wednesday

Time Temperature Precipitation Wind Pressure Humidity
00:00 +5°C° 0 mm 0 mps 708 mmHg 71%
01:00 +6°C° 0 mm 1 mps 707 mmHg 73%
02:00 +5°C° 0 mm 1 mps 707 mmHg 72%
03:00 +5°C° 0 mm 1 mps 707 mmHg 70%
04:00 +5°C° 0 mm 1 mps 706 mmHg 68%
05:00 +5°C° 0 mm 1 mps 707 mmHg 66%
06:00 +5°C° 0 mm 1 mps 707 mmHg 64%
07:00 +5°C° 0 mm 1 mps 708 mmHg 62%
08:00 +7°C° 0 mm 2 mps 708 mmHg 53%
09:00 +10°C° 0 mm 2 mps 708 mmHg 44%
10:00 +12°C° 0 mm 3 mps 708 mmHg 35%
11:00 +15°C° 0 mm 2 mps 707 mmHg 32%
12:00 +16°C° 0 mm 2 mps 707 mmHg 28%
13:00 +17°C° 0 mm 2 mps 706 mmHg 25%
14:00 +16°C° 0 mm 2 mps 706 mmHg 26%
15:00 +16°C° 0 mm 2 mps 706 mmHg 26%
16:00 +16°C° 0 mm 2 mps 706 mmHg 27%
17:00 +13°C° 0 mm 3 mps 707 mmHg 31%
18:00 +12°C° 0 mm 3 mps 707 mmHg 35%
19:00 +10°C° 0 mm 3 mps 707 mmHg 39%
20:00 +8°C° 0 mm 4 mps 708 mmHg 42%
21:00 +8°C° 0 mm 4 mps 708 mmHg 45%
22:00 +7°C° 0 mm 4 mps 708 mmHg 48%
23:00 +7°C° 0 mm 4 mps 708 mmHg 51%

9 July, Thursday

Time Temperature Precipitation Wind Pressure Humidity
00:00 +7°C° 0 mm 3 mps 707 mmHg 54%
01:00 +7°C° 0 mm 3 mps 707 mmHg 57%
02:00 +5°C° 0 mm 3 mps 707 mmHg 61%
03:00 +5°C° 0 mm 2 mps 706 mmHg 65%
04:00 +5°C° 0 mm 2 mps 706 mmHg 69%
05:00 +4°C° 0 mm 2 mps 706 mmHg 70%
06:00 +5°C° 0 mm 1 mps 705 mmHg 71%
07:00 +5°C° 0 mm 1 mps 705 mmHg 72%
08:00 +7°C° 0 mm 1 mps 705 mmHg 65%
09:00 +9°C° 0 mm 1 mps 705 mmHg 57%
10:00 +9°C° 0 mm 2 mps 705 mmHg 50%
11:00 +10°C° 0 mm 2 mps 705 mmHg 47%
12:00 +12°C° 0 mm 2 mps 704 mmHg 43%
13:00 +13°C° 0 mm 1 mps 703 mmHg 40%
14:00 +14°C° 0 mm 1 mps 703 mmHg 39%
15:00 +14°C° 0 mm 1 mps 703 mmHg 38%
16:00 +14°C° 0 mm 1 mps 703 mmHg 37%
17:00 +12°C° 0 mm 1 mps 702 mmHg 42%
18:00 +11°C° 0 mm 1 mps 702 mmHg 46%
19:00 +9°C° 0 mm 1 mps 702 mmHg 51%
20:00 +9°C° 0 mm 1 mps 702 mmHg 52%
21:00 +7°C° 0 mm 0 mps 702 mmHg 52%
22:00 +7°C° 0 mm 0 mps 702 mmHg 53%
23:00 +8°C° 0 mm 1 mps 702 mmHg 54%

10 July, Friday

Time Temperature Precipitation Wind Pressure Humidity
00:00 +7°C° 0 mm 2 mps 702 mmHg 56%
01:00 +7°C° 0 mm 2 mps 702 mmHg 57%
02:00 +6°C° 0 mm 2 mps 702 mmHg 59%
03:00 +6°C° 0 mm 2 mps 703 mmHg 62%
04:00 +6°C° 0 mm 2 mps 703 mmHg 64%
05:00 +6°C° 0 mm 2 mps 704 mmHg 64%
06:00 +6°C° 0 mm 2 mps 705 mmHg 64%
07:00 +5°C° 0 mm 3 mps 705 mmHg 64%
08:00 +8°C° 0 mm 3 mps 706 mmHg 57%
09:00 +10°C° 0 mm 3 mps 707 mmHg 49%
10:00 +12°C° 0 mm 4 mps 707 mmHg 42%
11:00 +13°C° 0 mm 3 mps 706 mmHg 41%
12:00 +14°C° 0 mm 3 mps 705 mmHg 40%
13:00 +15°C° 0 mm 2 mps 704 mmHg 38%
14:00 +15°C° 0 mm 2 mps 704 mmHg 39%
15:00 +15°C° 0 mm 2 mps 703 mmHg 40%
16:00 +15°C° 0 mm 1 mps 703 mmHg 40%
17:00 +13°C° 0 mm 1 mps 703 mmHg 47%
18:00 +11°C° 0 mm 1 mps 703 mmHg 53%
19:00 +9°C° 0 mm 1 mps 702 mmHg 59%
20:00 +9°C° 0 mm 1 mps 702 mmHg 60%
21:00 +9°C° 0 mm 1 mps 702 mmHg 61%
22:00 +8°C° 0 mm 1 mps 702 mmHg 62%
23:00 +8°C° 0 mm 1 mps 701 mmHg 62%

11 July, Saturday

Time Temperature Precipitation Wind Pressure Humidity
00:00 +8°C° 0 mm 1 mps 701 mmHg 63%
01:00 +7°C° 0 mm 1 mps 700 mmHg 63%
02:00 +8°C° 0 mm 1 mps 700 mmHg 61%
03:00 +8°C° 0 mm 1 mps 700 mmHg 59%
04:00 +7°C° 0 mm 2 mps 699 mmHg 56%
05:00 +8°C° 0 mm 1 mps 700 mmHg 55%
06:00 +8°C° 0 mm 1 mps 700 mmHg 54%
07:00 +8°C° 0 mm 1 mps 701 mmHg 53%
08:00 +9°C° 0 mm 2 mps 702 mmHg 46%
09:00 +12°C° 0 mm 3 mps 703 mmHg 39%
10:00 +16°C° 0 mm 3 mps 703 mmHg 32%
11:00 +17°C° 0 mm 4 mps 703 mmHg 31%
12:00 +16°C° 0 mm 5 mps 703 mmHg 29%
13:00 +17°C° 0 mm 5 mps 703 mmHg 28%
14:00 +17°C° 0 mm 6 mps 703 mmHg 30%
15:00 +16°C° 0 mm 6 mps 703 mmHg 31%
16:00 +16°C° 0 mm 7 mps 704 mmHg 33%
17:00 +14°C° 0 mm 6 mps 704 mmHg 42%
18:00 +13°C° 0 mm 6 mps 705 mmHg 50%
19:00 +10°C° 0 mm 5 mps 706 mmHg 59%
20:00 +9°C° 0 mm 5 mps 706 mmHg 59%
21:00 +8°C° 0 mm 4 mps 706 mmHg 58%
22:00 +7°C° 0 mm 4 mps 707 mmHg 58%
23:00 +6°C° 0 mm 4 mps 707 mmHg 56%
Show more